TimeCST,TemperatureF,Dew PointF,Humidity,Sea Level PressureIn,VisibilityMPH,Wind Direction,Wind SpeedMPH,Gust SpeedMPH,PrecipitationIn,Events,Conditions,WindDirDegrees,DateUTC
12:52 AM,30.9,27.0,85,30.23,4.0,ESE,9.2,-,N/A,,Clear,110,2013-02-09 06:52:00
1:52 AM,30.0,26.1,85,30.23,3.0,ESE,8.1,-,N/A,,Clear,120,2013-02-09 07:52:00
2:52 AM,30.9,27.0,85,30.21,4.0,ESE,10.4,-,N/A,,Clear,120,2013-02-09 08:52:00
3:52 AM,30.9,27.0,85,30.19,4.0,ESE,11.5,-,N/A,,Clear,120,2013-02-09 09:52:00
4:52 AM,32.0,27.0,82,30.17,4.0,SE,11.5,-,N/A,,Haze,130,2013-02-09 10:52:00
5:52 AM,32.0,28.0,85,30.17,4.0,SE,10.4,-,N/A,,Clear,130,2013-02-09 11:52:00
6:52 AM,32.0,28.0,85,30.17,4.0,SE,8.1,-,N/A,,Clear,130,2013-02-09 12:52:00
7:52 AM,32.0,28.0,85,30.17,3.0,SE,9.2,-,N/A,,Clear,130,2013-02-09 13:52:00
8:52 AM,35.1,30.0,82,30.16,3.0,SE,10.4,-,N/A,,Haze,140,2013-02-09 14:52:00
9:52 AM,37.0,30.9,79,30.15,4.0,SE,13.8,-,N/A,,Haze,140,2013-02-09 15:52:00
10:52 AM,41.0,30.9,67,30.12,5.0,SE,15.0,-,N/A,,Haze,140,2013-02-09 16:52:00
11:52 AM,44.1,32.0,63,30.08,6.0,SE,13.8,-,N/A,,Haze,140,2013-02-09 17:52:00
12:52 PM,46.9,34.0,61,30.04,6.0,SE,17.3,-,N/A,,Haze,140,2013-02-09 18:52:00
1:52 PM,48.9,34.0,56,29.98,6.0,SE,17.3,23.0,N/A,,Haze,130,2013-02-09 19:52:00
2:52 PM,51.1,36.0,56,29.94,6.0,SE,15.0,-,N/A,,Haze,140,2013-02-09 20:52:00
3:52 PM,48.9,34.0,56,29.94,7.0,SE,12.7,21.9,N/A,,Mostly Cloudy,140,2013-02-09 21:52:00
4:52 PM,48.0,32.0,54,29.91,8.0,SSE,23.0,26.5,N/A,,Scattered Clouds,160,2013-02-09 22:52:00
5:52 PM,46.0,32.0,58,29.88,7.0,SE,17.3,-,N/A,,Overcast,140,2013-02-09 23:52:00
6:52 PM,43.0,34.0,71,29.86,8.0,SE,15.0,-,0.00,,Overcast,130,2013-02-10 00:52:00
7:52 PM,43.0,35.1,74,29.86,7.0,SSE,15.0,-,0.00,,Overcast,150,2013-02-10 01:52:00
8:52 PM,42.1,35.1,76,29.83,6.0,SE,16.1,-,N/A,,Haze,140,2013-02-10 02:52:00
9:52 PM,42.1,35.1,76,29.82,6.0,SSE,17.3,-,N/A,,Haze,150,2013-02-10 03:52:00
10:43 PM,41.0,35.6,81,29.76,4.0,SE,16.1,-,N/A,,Haze,140,2013-02-10 04:43:00
10:52 PM,41.0,37.0,86,29.77,5.0,SE,13.8,-,N/A,,Overcast,140,2013-02-10 04:52:00
11:34 PM,41.0,37.4,87,29.74,5.0,SE,15.0,21.9,N/A,,Overcast,140,2013-02-10 05:34:00
11:52 PM,42.1,37.0,82,29.75,5.0,SE,15.0,-,N/A,,Haze,140,2013-02-10 05:52:00